Date String (YYYY-MM-DD hh:mm:ss) UTC,Instrument flags,absolute air pressure of the measurement (hPa),sample flow rate (lpm),inlet stack bypass flow (lpm),air temperature of the measurement (°C),ambient temperature measured by the external sensor (°C),aerosol sample conditioner tube jacket temperature (°C),OPC LED temperature (°C),internal box temperature (°C),relative humidity of the measurement (%),span deviation,mass concentration of particles derived from Lorenz-Mie calculation of OPC scattering (μg/m³),mass concentration of particles derived from Lorenz-Mie calculation of OPC scattering (μg/m³),mass concentration of particles derived from Lorenz-Mie calculation of OPC scattering (μg/m³)
DateTimeUTC,F1_M11,P_M11,Q1_M11,Q2_M11,T1_M11,T2_M11,T3_M11,T4_M11,T5_M11,U1_M11,ZSPAN_M11,X2_M11,X0_M11,X1_M11
2024-03-13 04:00:00,SystemResetWarning,0822.1,5.00,000.00,023.0,022.2,000.0,031.5,024.8,16.0,0000.0,0002.69,0007.32,0001.37
2024-03-13 04:01:00,SystemResetWarning,0822.1,4.99,000.00,023.0,022.2,000.0,031.5,024.8,16.1,0000.0,0002.73,0007.30,0001.38
2024-03-13 04:02:00,SystemResetWarning,0822.1,5.00,000.00,022.9,022.2,000.0,031.5,024.8,16.2,0000.0,0002.70,0007.33,0001.38
2024-03-13 04:03:00,SystemResetWarning,0822.1,5.01,000.00,022.9,022.2,000.0,031.5,024.8,16.2,0000.0,0002.69,0007.19,0001.38
2024-03-13 04:04:00,SystemResetWarning,0822.1,5.00,000.00,022.9,022.1,000.0,031.5,024.8,16.1,0000.0,0002.70,0007.46,0001.40
2024-03-13 04:05:00,SystemResetWarning,0822.1,5.00,000.00,022.9,022.1,000.0,031.5,024.8,16.2,0000.0,0002.81,0007.67,0001.42
2024-03-13 04:06:00,SystemResetWarning,0822.1,5.00,000.00,022.9,022.1,000.0,031.5,024.8,16.2,0000.0,0002.80,0007.68,0001.43
2024-03-13 04:07:00,SystemResetWarning,0822.1,4.99,000.00,022.9,022.1,000.0,031.5,024.8,16.2,0000.0,0002.81,0007.67,0001.43
2024-03-13 04:08:00,SystemResetWarning,0822.1,4.99,000.00,022.9,022.1,000.0,031.5,024.8,16.3,0000.0,0002.78,0007.80,0001.43
2024-03-13 04:09:00,SystemResetWarning,0822.1,5.00,000.00,022.9,022.1,000.0,031.5,024.8,16.2,0000.0,0002.84,0008.44,0001.45
2024-03-13 04:10:00,SystemResetWarning,0822.1,5.00,000.00,022.9,022.1,000.0,031.5,024.8,16.2,0000.0,0002.83,0008.74,0001.46
2024-03-13 04:11:00,SystemResetWarning,0822.1,5.00,000.00,022.9,022.1,000.0,031.5,024.8,16.2,0000.0,0002.80,0008.87,0001.45
2024-03-13 04:12:00,SystemResetWarning,0822.1,5.00,000.00,022.9,022.1,000.0,031.5,024.7,16.2,0000.0,0002.86,0009.08,0001.47
2024-03-13 04:13:00,SystemResetWarning,0822.1,5.00,000.00,022.9,022.1,000.0,031.5,024.7,16.1,0000.0,0002.89,0009.58,0001.47
2024-03-13 04:14:00,SystemResetWarning,0822.2,5.00,000.00,022.9,022.1,000.0,031.5,024.7,16.2,0000.0,0002.92,0009.77,0001.49
2024-03-13 04:15:00,SystemResetWarning,0822.2,5.00,000.00,022.9,022.0,000.0,031.5,024.7,16.2,0000.0,0002.97,0009.48,0001.50
2024-03-13 04:16:00,SystemResetWarning,0822.2,4.99,000.00,022.9,022.0,000.0,031.4,024.7,16.3,0000.0,0002.92,0009.28,0001.49
2024-03-13 04:17:00,SystemResetWarning,0822.2,5.00,000.00,022.9,022.0,000.0,031.4,024.7,16.5,0000.0,0002.96,0009.31,0001.51
2024-03-13 04:18:00,SystemResetWarning,0822.2,5.00,000.00,022.9,022.0,000.0,031.4,024.7,16.6,0000.0,0003.00,0009.29,0001.53
2024-03-13 04:19:00,SystemResetWarning,0822.2,5.00,000.00,022.9,022.0,000.0,031.4,024.7,16.6,0000.0,0003.10,0009.35,0001.55
2024-03-13 04:20:00,SystemResetWarning,0822.2,5.00,000.00,022.9,022.1,000.0,031.4,024.7,16.6,0000.0,0003.07,0008.90,0001.55
2024-03-13 04:21:00,SystemResetWarning,0822.2,5.00,000.00,022.9,022.1,000.0,031.4,024.7,16.6,0000.0,0003.07,0008.99,0001.54
2024-03-13 04:22:00,SystemResetWarning,0822.2,5.00,000.00,022.9,022.1,000.0,031.4,024.7,16.6,0000.0,0003.04,0008.80,0001.54
2024-03-13 04:23:00,SystemResetWarning,0822.2,5.00,000.00,022.9,022.1,000.0,031.4,024.7,16.5,0000.0,0003.01,0008.84,0001.54
2024-03-13 04:24:00,SystemResetWarning,0822.2,4.99,000.00,022.9,022.1,000.0,031.4,024.7,16.4,0000.0,0003.04,0009.12,0001.54
2024-03-13 04:25:00,SystemResetWarning,0822.1,5.00,000.00,022.9,022.1,000.0,031.4,024.8,16.4,0000.0,0003.06,0008.69,0001.55
2024-03-13 04:26:00,SystemResetWarning,0822.1,5.01,000.00,022.9,022.1,000.0,031.4,024.8,16.3,0000.0,0003.03,0008.42,0001.54
2024-03-13 04:27:00,SystemResetWarning,0822.1,5.01,000.00,022.9,022.2,000.0,031.4,024.8,16.3,0000.0,0003.08,0008.49,0001.56
2024-03-13 04:28:00,SystemResetWarning,0822.1,4.99,000.00,022.9,022.2,000.0,031.4,024.8,16.2,0000.0,0003.08,0008.48,0001.56
2024-03-13 04:29:00,SystemResetWarning,0822.1,4.99,000.00,022.9,022.2,000.0,031.4,024.8,16.2,0000.0,0003.07,0008.48,0001.56
2024-03-13 04:30:00,SystemResetWarning,0822.1,5.00,000.00,022.9,022.2,000.0,031.4,024.8,16.3,0000.0,0003.00,0008.37,0001.56
2024-03-13 04:31:00,SystemResetWarning,0822.1,5.00,000.00,022.9,022.2,000.0,031.4,024.8,16.3,0000.0,0003.04,0008.31,0001.58
2024-03-13 04:32:00,SystemResetWarning,0822.1,5.00,000.00,022.9,022.2,000.0,031.4,024.8,16.4,0000.0,0003.03,0007.80,0001.59
2024-03-13 04:33:00,SystemResetWarning,0822.1,5.00,000.00,022.9,022.2,000.0,031.4,024.8,16.3,0000.0,0003.01,0007.80,0001.60
2024-03-13 04:34:00,SystemResetWarning,0822.1,5.01,000.00,022.9,022.2,000.0,031.4,024.8,16.2,0000.0,0003.00,0007.67,0001.61
2024-03-13 04:35:00,SystemResetWarning,0822.1,5.00,000.00,022.9,022.2,000.0,031.4,024.8,16.1,0000.0,0002.98,0007.44,0001.62
2024-03-13 04:36:00,SystemResetWarning,0822.1,4.99,000.00,022.9,022.2,000.0,031.4,024.8,16.1,0000.0,0002.99,0007.71,0001.60
2024-03-13 04:37:00,SystemResetWarning,0822.1,4.99,000.00,022.9,022.2,000.0,031.4,024.8,16.0,0000.0,0002.97,0008.43,0001.58
2024-03-13 04:38:00,SystemResetWarning,0822.1,5.00,000.00,022.9,022.2,000.0,031.4,024.8,15.8,0000.0,0002.95,0008.72,0001.58
2024-03-13 04:39:00,SystemResetWarning,0822.1,5.00,000.00,022.9,022.2,000.0,031.4,024.8,15.8,0000.0,0002.93,0008.84,0001.59
2024-03-13 04:40:00,SystemResetWarning,0822.1,5.01,000.00,023.0,022.2,000.0,031.5,024.8,15.9,0000.0,0002.99,0008.98,0001.60
2024-03-13 04:41:00,SystemResetWarning,0822.1,5.01,000.00,022.9,022.3,000.0,031.5,024.8,15.9,0000.0,0003.06,0009.10,0001.60
2024-03-13 04:42:00,SystemResetWarning,0822.2,5.00,000.00,023.0,022.3,000.0,031.5,024.8,15.9,0000.0,0003.11,0009.11,0001.60
2024-03-13 04:43:00,SystemResetWarning,0822.2,4.99,000.00,023.0,022.3,000.0,031.5,024.8,15.8,0000.0,0003.15,0009.19,0001.59
2024-03-13 04:44:00,SystemResetWarning,0822.2,4.99,000.00,023.0,022.3,000.0,031.5,024.8,15.8,0000.0,0003.19,0009.27,0001.60
2024-03-13 04:45:00,SystemResetWarning,0822.3,5.01,000.00,023.0,022.3,000.0,031.5,024.8,15.9,0000.0,0003.19,0009.17,0001.58
2024-03-13 04:46:00,SystemResetWarning,0822.3,5.01,000.00,023.0,022.3,000.0,031.5,024.9,15.9,0000.0,0003.20,0008.79,0001.56
2024-03-13 04:47:00,SystemResetWarning,0822.3,4.99,000.00,023.0,022.3,000.0,031.5,024.8,15.8,0000.0,0003.16,0008.34,0001.56
2024-03-13 04:48:00,SystemResetWarning,0822.3,4.99,000.00,023.0,022.3,000.0,031.5,024.8,15.6,0000.0,0003.18,0007.60,0001.58
2024-03-13 04:49:00,SystemResetWarning,0822.3,5.01,000.00,023.0,022.3,000.0,031.5,024.8,15.6,0000.0,0003.19,0007.33,0001.58
2024-03-13 04:50:00,SystemResetWarning,0822.4,5.00,000.00,023.0,022.3,000.0,031.5,024.8,15.8,0000.0,0003.19,0007.47,0001.56
2024-03-13 04:51:00,SystemResetWarning,0822.4,5.00,000.00,023.0,022.3,000.0,031.5,024.8,16.0,0000.0,0003.18,0007.40,0001.54
2024-03-13 04:52:00,SystemResetWarning,0822.4,5.00,000.00,023.0,022.2,000.0,031.5,024.8,16.3,0000.0,0003.16,0007.28,0001.54
2024-03-13 04:53:00,SystemResetWarning,0822.4,5.01,000.00,023.0,022.2,000.0,031.5,024.8,16.4,0000.0,0003.15,0007.42,0001.53
2024-03-13 04:54:00,SystemResetWarning,0822.5,5.00,000.00,023.0,022.2,000.0,031.5,024.8,16.3,0000.0,0003.13,0007.96,0001.53
2024-03-13 04:55:00,SystemResetWarning,0822.5,5.00,000.00,023.0,022.2,000.0,031.5,024.8,16.4,0000.0,0003.09,0008.36,0001.51
2024-03-13 04:56:00,SystemResetWarning,0822.8,4.99,000.00,023.0,022.1,000.0,031.5,024.8,16.5,0000.0,0003.05,0008.52,0001.51
2024-03-13 04:57:00,SystemResetWarning,0822.4,5.00,000.00,023.0,022.1,000.0,031.5,024.8,16.4,0000.0,0003.06,0008.87,0001.52
2024-03-13 04:58:00,SystemResetWarning,0822.7,5.01,000.00,022.9,022.1,000.0,031.5,024.8,16.6,0000.0,0003.11,0008.98,0001.53
2024-03-13 04:59:00,SystemResetWarning,0823.0,5.01,000.00,022.9,022.1,000.0,031.5,024.8,16.7,0000.0,0003.13,0009.16,0001.52
